Liberia, Costa Rica

5:53 AM CST on March 24, 2017 (GMT -0600)
Daniel Oduber Quiros International

Weather History for MRLB - May, 2014

Change the Weather History Date:

Friday, May 30, 2014

  Actual Average Record
Temperature  
Mean Temperature 82 °F -  
Max Temperature 91 °F 86 °F 95 °F (1997)
Min Temperature 74 °F 75 °F 37 °F (2001)
Cooling Degree Days 18    
Growing Degree Days 32 (Base 50)    
Moisture  
Dew Point 73 °F    
Average Humidity 74    
Maximum Humidity 94    
Minimum Humidity 45    
Precipitation  
Precipitation 0.08 in - - ()
Sea Level Pressure  
Sea Level Pressure 29.82 in    
Wind  
Wind Speed 6 mph ()    
Max Wind Speed 15 mph    
Max Gust Speed -    
Visibility 7.6 miles    
Events Rain , Thunderstorm    
Averages and records for this station are not official NWS values.
T = Trace of Precipitation, MM = Missing Value Source: Averaged Metar Reports

Daily Weather History Graph

Daily Weather History Graph

Search for Another Location

Airport or City:

Trip Planner

Search our weather history database for the weather conditions in past years. The results will help you decide how hot, cold, wet, or windy it might be!

Date:

Astronomy

May. 30, 2014 Rise Set
Actual Time 5:18 AM CST 6:00 PM CST
Civil Twilight 4:56 AM CST 6:23 PM CST
Nautical Twilight 4:29 AM CST 6:50 PM CST
Astronomical Twilight 4:02 AM CST 7:17 PM CST
Moon 6:53 AM CST (5/30) 7:47 PM CST (5/30)
Length of Visible Light 13h 27m
Length of Day
12h 41m
Waxing Crescent, 4% of the Moon is Illuminated
May 30
Waxing Crescent
Jun 5
First Quarter
Jun 12
Full
Jun 19
Last Quarter
Jun 27
New

Hourly Weather History & Observations

Time (CST) Temp. Heat Index Dew Point Humidity Pressure Visibility Wind Dir Wind Speed Gust Speed Precip Events Conditions
6:00 AM 76 °F - 74 °F 91% 29.82 in 12 mi West 3.5 mph - -   Clear
6:00 AM 75.2 °F - 73.4 °F 94% 29.81 in - West 3.5 mph - N/A   Clear
7:00 AM 77.0 °F - 75.2 °F 94% 29.83 in 6.2 mi WSW 3.5 mph - N/A   Mostly Cloudy
8:00 AM 78.8 °F - 75.2 °F 89% 29.86 in 6.2 mi South 4.6 mph - N/A   Mostly Cloudy
9:00 AM 83 °F - 76 °F 73% 29.87 in 12 mi SSE 5.8 mph - -   Overcast
9:00 AM 82.4 °F 89.5 °F 75.2 °F 79% 29.86 in 6.2 mi SSE 5.8 mph - N/A   Mostly Cloudy
10:00 AM 86.0 °F 91.8 °F 71.6 °F 62% 29.86 in 6.2 mi SE 4.6 mph - N/A   Mostly Cloudy
11:00 AM 89.6 °F 94.7 °F 69.8 °F 52% 29.84 in 6.2 mi SSW 5.8 mph - N/A   Mostly Cloudy
12:00 PM 89 °F - 70 °F 45% 29.82 in 12 mi West 10.4 mph - -   Overcast
12:00 PM 87.8 °F 92.6 °F 69.8 °F 55% 29.83 in 6.2 mi West 10.4 mph - N/A   Mostly Cloudy
1:00 PM 89.6 °F 96.2 °F 71.6 °F 55% 29.80 in 6.2 mi West 11.5 mph - N/A   Mostly Cloudy
2:00 PM 89.6 °F 98.2 °F 73.4 °F 59% 29.77 in 6.2 mi West 15.0 mph - N/A   Mostly Cloudy
3:00 PM 89 °F - 73 °F 51% 29.81 in 12 mi West 13.8 mph - - Thunderstorm Thunderstorm
3:00 PM 87.8 °F 95.6 °F 73.4 °F 62% 29.77 in 6.2 mi West 13.8 mph - N/A Thunderstorm Mostly Cloudy
3:18 PM 78.8 °F - 69.8 °F 74% 29.78 in 6.2 mi East 12.7 mph - N/A Thunderstorm Mostly Cloudy
4:00 PM 77.0 °F - 73.4 °F 89% 29.79 in 5.6 mi East 5.8 mph - N/A Rain , Thunderstorm Thunderstorms and Rain
5:00 PM 77.0 °F - 73.4 °F 89% 29.80 in 6.2 mi North 5.8 mph - N/A   Mostly Cloudy
6:00 PM 77 °F - 72 °F 82% 29.84 in 12 mi NE 5.8 mph - -   Overcast
6:00 PM 77.0 °F - 71.6 °F 83% 29.81 in 6.2 mi NE 5.8 mph - N/A   Mostly Cloudy
7:00 PM 77.0 °F - 73.4 °F 89% 29.83 in 6.2 mi Calm Calm - N/A   Mostly Cloudy
8:00 PM 77.0 °F - 73.4 °F 89% 29.85 in 6.2 mi Calm Calm - N/A   Mostly Cloudy